Location: Rowland
(34.5359°N, 79.2929°W)
Time: 15:46:46
(UTC+00:00)

SR - Pass Details

Date: 04 October 2022
Orbit: 577 x 875 km, 66.7° (Epoch: 28 November)

Event Time Altitude Azimuth Distance (km) Brightness Sun altitude
Rises 02:23:44 0° 233° (SW) 3,408 ? -41.8°
Enters shadow 02:24:57 - 237° (WSW) 2,988 ? -42.0°
Reaches altitude 10° 02:26:27 10° 243° (WSW) 2,498 - -42.3°
Maximum altitude 02:31:34 31° 305° (NW) 1,477 - -43.2°
Drops below altitude 10° 02:36:46 10° 7° (N) 2,521 - -44.1°
Sets 02:39:32 0° 17° (NNE) 3,444 - -44.6°
